DAL1250 SVMI-SKBQ

Flight info

Callsign DAL1250
Flight time 1h 25m
Altitude FL320
Route MARES1 PBL UW52 MAU UTKIV STA2B
Aircraft B733/M-S/NAEXS

Departure

Time 2026-04-29 04:24
Airport Maiquetía Simón Bolívar International Airport (SVMI)

Arrival

Time 2026-04-29 05:49
Airport Ernesto Cortissoz International Airport (SKBQ)
Time Latitude Longitude Altitude Speed Heading
2026-04-29 04:10 10.60247 -67.00070 242 ft 0 kts 177°
2026-04-29 04:14 10.60258 -67.00070 242 ft 2 kts 177°
2026-04-29 04:14 10.60277 -67.00071 242 ft 3 kts 177°
2026-04-29 04:15 10.60297 -67.00072 242 ft 3 kts 177°
2026-04-29 04:15 10.60317 -67.00073 242 ft 3 kts 177°
2026-04-29 04:15 10.60331 -67.00074 242 ft 3 kts 177°
2026-04-29 04:15 10.60358 -67.00075 242 ft 3 kts 177°
2026-04-29 04:16 10.60379 -67.00076 242 ft 3 kts 177°
2026-04-29 04:16 10.60399 -67.00077 242 ft 3 kts 177°
2026-04-29 04:16 10.60420 -67.00078 242 ft 3 kts 177°
2026-04-29 04:16 10.60440 -67.00079 242 ft 3 kts 177°
2026-04-29 04:17 10.60460 -67.00080 242 ft 3 kts 177°
2026-04-29 04:17 10.60474 -67.00081 242 ft 3 kts 177°
2026-04-29 04:17 10.60476 -67.00081 242 ft 0 kts 177°
2026-04-29 04:17 10.60474 -67.00081 242 ft 1 kts 181°
2026-04-29 04:18 10.60468 -67.00085 242 ft 1 kts 225°
2026-04-29 04:18 10.60464 -67.00097 242 ft 3 kts 272°
2026-04-29 04:18 10.60465 -67.00128 242 ft 6 kts 272°
2026-04-29 04:18 10.60467 -67.00179 242 ft 9 kts 272°
2026-04-29 04:19 10.60458 -67.00246 242 ft 11 kts 260°
2026-04-29 04:19 10.60442 -67.00328 242 ft 13 kts 256°
2026-04-29 04:19 10.60428 -67.00422 242 ft 14 kts 258°
2026-04-29 04:19 10.60425 -67.00528 242 ft 16 kts 270°
2026-04-29 04:20 10.60425 -67.00644 242 ft 17 kts 264°
2026-04-29 04:20 10.60414 -67.00768 242 ft 18 kts 265°
2026-04-29 04:20 10.60409 -67.00854 242 ft 19 kts 268°
2026-04-29 04:20 10.60400 -67.01020 242 ft 12 kts 275°
2026-04-29 04:21 10.60459 -67.01049 242 ft 9 kts 359°
2026-04-29 04:21 10.60523 -67.01051 242 ft 7 kts 355°
2026-04-29 04:21 10.60573 -67.01055 242 ft 8 kts 356°
2026-04-29 04:21 10.60625 -67.01051 242 ft 7 kts 38°
2026-04-29 04:22 10.60641 -67.01011 242 ft 3 kts 87°
2026-04-29 04:22 10.60642 -67.01008 242 ft 1 kts 87°
2026-04-29 04:22 10.60642 -67.00998 242 ft 3 kts 87°
2026-04-29 04:22 10.60653 -67.00805 242 ft 56 kts 89°
2026-04-29 04:23 10.60673 -67.00225 242 ft 108 kts 88°
2026-04-29 04:23 10.60724 -66.99308 242 ft 150 kts 86°
2026-04-29 04:23 10.60792 -66.98142 321 ft 177 kts 90°
2026-04-29 04:23 10.60849 -66.96859 685 ft 192 kts 90°
2026-04-29 04:24 10.60876 -66.95440 1214 ft 204 kts 93°
2026-04-29 04:24 10.60848 -66.94007 1853 ft 211 kts 94°
2026-04-29 04:24 10.60894 -66.92452 2468 ft 215 kts 88°
2026-04-29 04:24 10.61000 -66.90987 3476 ft 201 kts 90°
2026-04-29 04:25 10.61037 -66.89608 4269 ft 199 kts 90°
2026-04-29 04:25 10.61508 -66.88161 4230 ft 233 kts 54°
2026-04-29 04:25 10.62839 -66.87233 4064 ft 247 kts 15°
2026-04-29 04:25 10.64594 -66.87311 4021 ft 258 kts 338°
2026-04-29 04:26 10.65989 -66.88402 4016 ft 258 kts 302°
2026-04-29 04:26 10.66564 -66.90099 4038 ft 257 kts 276°
2026-04-29 04:26 10.66953 -66.91889 4026 ft 265 kts 289°
2026-04-29 04:26 10.67644 -66.93613 4027 ft 266 kts 290°
2026-04-29 04:27 10.68376 -66.95353 4019 ft 268 kts 291°
2026-04-29 04:27 10.69101 -66.97085 4012 ft 269 kts 291°
2026-04-29 04:27 10.69833 -66.98848 4007 ft 269 kts 290°
2026-04-29 04:27 10.70547 -67.00585 4004 ft 269 kts 290°
2026-04-29 04:28 10.71263 -67.02343 4003 ft 270 kts 290°
2026-04-29 04:28 10.71973 -67.04099 4002 ft 270 kts 290°
2026-04-29 04:28 10.72678 -67.05856 4001 ft 270 kts 290°
2026-04-29 04:28 10.73390 -67.07645 4000 ft 271 kts 290°
2026-04-29 04:29 10.74090 -67.09409 4000 ft 271 kts 290°
2026-04-29 04:29 10.74791 -67.11182 4000 ft 271 kts 290°
2026-04-29 04:29 10.75486 -67.12948 4000 ft 270 kts 290°
2026-04-29 04:29 10.76185 -67.14729 4000 ft 270 kts 289°
2026-04-29 04:30 10.76877 -67.16496 4000 ft 270 kts 289°
2026-04-29 04:30 10.77570 -67.18268 4000 ft 270 kts 289°
2026-04-29 04:30 10.78888 -67.21851 3994 ft 274 kts 279°
2026-04-29 04:31 10.78661 -67.23752 4552 ft 272 kts 245°
2026-04-29 04:31 10.77876 -67.25487 5457 ft 270 kts 245°
2026-04-29 04:31 10.77174 -67.27215 6178 ft 271 kts 246°
2026-04-29 04:31 10.76448 -67.29031 6887 ft 274 kts 246°
2026-04-29 04:32 10.75741 -67.30839 7595 ft 276 kts 246°
2026-04-29 04:32 10.75045 -67.32645 8330 ft 277 kts 246°
2026-04-29 04:32 10.74353 -67.34466 9037 ft 278 kts 246°
2026-04-29 04:32 10.73657 -67.36317 9724 ft 280 kts 246°
2026-04-29 04:33 10.72961 -67.38182 10270 ft 289 kts 246°
2026-04-29 04:33 10.72240 -67.40123 10544 ft 306 kts 246°
2026-04-29 04:33 10.71470 -67.42217 10939 ft 319 kts 246°
2026-04-29 04:33 10.70689 -67.44361 11570 ft 324 kts 246°
2026-04-29 04:34 10.69914 -67.46503 12226 ft 328 kts 247°
2026-04-29 04:34 10.69120 -67.48706 12891 ft 331 kts 247°
2026-04-29 04:34 10.68337 -67.50886 13533 ft 335 kts 247°
2026-04-29 04:34 10.67533 -67.53130 14177 ft 338 kts 247°
2026-04-29 04:35 10.66732 -67.55372 14817 ft 341 kts 247°
2026-04-29 04:35 10.65918 -67.57657 15459 ft 344 kts 247°
2026-04-29 04:35 10.65098 -67.59960 16073 ft 347 kts 247°
2026-04-29 04:35 10.64277 -67.62268 16664 ft 351 kts 247°
2026-04-29 04:36 10.63454 -67.64587 17274 ft 352 kts 248°
2026-04-29 04:36 10.62626 -67.66921 17917 ft 353 kts 248°
2026-04-29 04:36 10.61791 -67.69274 18513 ft 356 kts 248°
2026-04-29 04:36 10.60949 -67.71649 19063 ft 360 kts 248°
2026-04-29 04:37 10.60104 -67.74033 19710 ft 359 kts 248°
2026-04-29 04:37 10.59258 -67.76423 20541 ft 360 kts 247°
2026-04-29 04:37 10.58433 -67.78751 21140 ft 363 kts 248°
2026-04-29 04:37 10.57578 -67.81163 21799 ft 365 kts 247°
2026-04-29 04:38 10.56718 -67.83587 22429 ft 368 kts 248°
2026-04-29 04:38 10.55852 -67.86034 23094 ft 370 kts 248°
2026-04-29 04:38 10.54971 -67.88518 23689 ft 373 kts 248°
2026-04-29 04:38 10.54090 -67.91001 24201 ft 378 kts 248°
2026-04-29 04:39 10.53190 -67.93533 24697 ft 383 kts 248°
2026-04-29 04:39 10.52285 -67.96083 25239 ft 386 kts 248°
2026-04-29 04:39 10.51377 -67.98644 25802 ft 388 kts 248°
2026-04-29 04:39 10.50461 -68.01227 26348 ft 391 kts 248°
2026-04-29 04:40 10.49848 -68.02956 26669 ft 394 kts 248°
2026-04-29 04:40 10.49528 -68.03848 26833 ft 395 kts 248°
2026-04-29 04:41 10.48518 -68.15034 28748 ft 415 kts 272°
2026-04-29 04:41 10.48770 -68.17973 29182 ft 419 kts 272°
2026-04-29 04:41 10.49007 -68.20920 29601 ft 422 kts 272°
2026-04-29 04:41 10.49243 -68.23902 30029 ft 424 kts 272°
2026-04-29 04:42 10.49465 -68.26884 30388 ft 428 kts 272°
2026-04-29 04:42 10.49686 -68.29845 30777 ft 430 kts 271°
2026-04-29 04:42 10.49911 -68.32899 30894 ft 440 kts 271°
2026-04-29 04:43 10.50358 -68.39159 30912 ft 440 kts 271°
2026-04-29 04:43 10.50784 -68.45235 30908 ft 426 kts 271°
2026-04-29 04:44 10.51193 -68.51181 30909 ft 421 kts 271°
2026-04-29 04:44 10.51596 -68.57101 30908 ft 422 kts 271°
2026-04-29 04:45 10.52002 -68.63068 30913 ft 427 kts 271°
2026-04-29 04:45 10.52411 -68.69088 30915 ft 427 kts 271°
2026-04-29 04:46 10.52815 -68.75104 30920 ft 428 kts 271°
2026-04-29 04:46 10.53216 -68.81100 30913 ft 430 kts 271°
2026-04-29 04:47 10.53624 -68.87150 30915 ft 430 kts 271°
2026-04-29 04:47 10.54024 -68.93201 30916 ft 429 kts 271°
2026-04-29 04:48 10.54458 -68.99198 30915 ft 428 kts 272°
2026-04-29 04:48 10.54946 -69.05203 30912 ft 427 kts 272°
2026-04-29 04:49 10.55434 -69.11223 30914 ft 428 kts 272°
2026-04-29 04:49 10.55910 -69.17219 30914 ft 428 kts 272°
2026-04-29 04:50 10.56395 -69.23289 30915 ft 435 kts 272°
2026-04-29 04:50 10.56874 -69.29327 30916 ft 436 kts 272°
2026-04-29 04:51 10.57359 -69.35451 30917 ft 435 kts 272°
2026-04-29 04:51 10.57838 -69.41478 30914 ft 428 kts 272°
2026-04-29 04:52 10.58307 -69.47441 30916 ft 429 kts 272°
2026-04-29 04:52 10.58785 -69.53541 30929 ft 429 kts 272°
2026-04-29 04:52 10.59027 -69.56578 31279 ft 431 kts 272°
2026-04-29 04:53 10.59262 -69.59591 31750 ft 432 kts 272°
2026-04-29 04:53 10.59497 -69.62634 31887 ft 439 kts 272°
2026-04-29 04:53 10.59740 -69.65732 31909 ft 432 kts 272°
2026-04-29 04:54 10.60212 -69.71790 31914 ft 433 kts 271°
2026-04-29 04:54 10.60616 -69.77844 31919 ft 432 kts 271°
2026-04-29 04:55 10.61020 -69.83954 31921 ft 437 kts 271°
2026-04-29 04:55 10.61428 -69.90125 31916 ft 440 kts 271°
2026-04-29 04:56 10.61835 -69.96303 31915 ft 441 kts 271°
2026-04-29 04:56 10.62247 -70.02539 31917 ft 445 kts 271°
2026-04-29 04:57 10.62664 -70.08814 31915 ft 446 kts 271°
2026-04-29 04:57 10.63082 -70.15144 31915 ft 452 kts 271°
2026-04-29 04:58 10.63500 -70.21512 31917 ft 453 kts 271°
2026-04-29 04:58 10.63913 -70.27799 31914 ft 450 kts 271°
2026-04-29 04:59 10.64325 -70.34104 31914 ft 449 kts 271°
2026-04-29 04:59 10.64739 -70.40439 31915 ft 450 kts 271°
2026-04-29 05:00 10.65138 -70.46783 31913 ft 449 kts 271°
2026-04-29 05:00 10.65533 -70.53143 31915 ft 453 kts 271°
2026-04-29 05:01 10.65928 -70.59472 31914 ft 446 kts 271°
2026-04-29 05:01 10.66314 -70.65758 31916 ft 447 kts 271°
2026-04-29 05:02 10.66700 -70.71990 31912 ft 440 kts 271°
2026-04-29 05:02 10.67080 -70.78185 31918 ft 449 kts 271°
2026-04-29 05:03 10.67469 -70.84478 31920 ft 445 kts 271°
2026-04-29 05:03 10.67850 -70.90700 31912 ft 440 kts 271°
2026-04-29 05:04 10.68230 -70.96923 31917 ft 446 kts 271°
2026-04-29 05:04 10.68611 -71.03173 31914 ft 444 kts 271°
2026-04-29 05:05 10.68888 -71.09442 31913 ft 440 kts 269°
2026-04-29 05:05 10.69096 -71.15622 31918 ft 441 kts 269°
2026-04-29 05:06 10.69301 -71.21840 31915 ft 440 kts 269°
2026-04-29 05:06 10.69512 -71.27916 31915 ft 437 kts 269°
2026-04-29 05:07 10.69725 -71.34116 31911 ft 437 kts 269°
2026-04-29 05:07 10.69940 -71.40328 31916 ft 440 kts 269°
2026-04-29 05:08 10.70151 -71.46525 31916 ft 440 kts 269°
2026-04-29 05:08 10.70363 -71.52738 31917 ft 441 kts 269°
2026-04-29 05:09 10.70577 -71.58960 31916 ft 439 kts 269°
2026-04-29 05:09 10.70787 -71.65109 31912 ft 434 kts 269°
2026-04-29 05:10 10.70991 -71.71244 31914 ft 433 kts 270°
2026-04-29 05:10 10.71196 -71.77305 31913 ft 432 kts 269°
2026-04-29 05:11 10.71397 -71.83342 31913 ft 430 kts 270°
2026-04-29 05:11 10.71596 -71.89417 31914 ft 431 kts 270°
2026-04-29 05:12 10.71797 -71.95500 31916 ft 437 kts 269°
2026-04-29 05:12 10.72003 -72.01731 31920 ft 441 kts 269°
2026-04-29 05:13 10.72200 -72.07858 31913 ft 432 kts 270°
2026-04-29 05:13 10.72400 -72.13980 31914 ft 431 kts 270°
2026-04-29 05:14 10.72594 -72.20017 31917 ft 431 kts 270°
2026-04-29 05:14 10.72787 -72.26133 31913 ft 436 kts 269°
2026-04-29 05:15 10.72985 -72.32268 31922 ft 443 kts 269°
2026-04-29 05:15 10.73179 -72.38516 31914 ft 440 kts 269°
2026-04-29 05:16 10.73373 -72.44666 31914 ft 440 kts 269°
2026-04-29 05:16 10.73569 -72.50954 31917 ft 445 kts 269°
2026-04-29 05:17 10.73764 -72.57217 31912 ft 443 kts 269°
2026-04-29 05:17 10.73957 -72.63445 31913 ft 438 kts 269°
2026-04-29 05:18 10.74159 -72.69605 31913 ft 435 kts 271°
2026-04-29 05:18 10.74991 -72.75760 31916 ft 442 kts 276°
2026-04-29 05:19 10.75911 -72.81891 31915 ft 442 kts 276°
2026-04-29 05:19 10.76818 -72.88051 31910 ft 441 kts 276°
2026-04-29 05:19 10.77266 -72.91084 31681 ft 426 kts 276°
2026-04-29 05:20 10.77695 -72.94018 31418 ft 413 kts 276°
2026-04-29 05:20 10.78109 -72.96871 31153 ft 411 kts 275°
2026-04-29 05:20 10.78530 -72.99789 30916 ft 423 kts 276°
2026-04-29 05:20 10.78950 -73.02692 30586 ft 414 kts 276°
2026-04-29 05:21 10.79366 -73.05569 30111 ft 409 kts 276°
2026-04-29 05:21 10.79778 -73.08429 29578 ft 410 kts 275°
2026-04-29 05:21 10.80193 -73.11286 29007 ft 407 kts 275°
2026-04-29 05:21 10.80597 -73.14107 28428 ft 404 kts 275°
2026-04-29 05:22 10.81000 -73.16913 27849 ft 401 kts 275°
2026-04-29 05:22 10.81403 -73.19730 27268 ft 398 kts 275°
2026-04-29 05:22 10.81801 -73.22489 26699 ft 395 kts 275°
2026-04-29 05:22 10.82193 -73.25236 26136 ft 392 kts 275°
2026-04-29 05:23 10.82576 -73.27906 25586 ft 390 kts 275°
2026-04-29 05:23 10.82965 -73.30629 25026 ft 387 kts 275°
2026-04-29 05:23 10.83348 -73.33306 24477 ft 385 kts 275°
2026-04-29 05:23 10.83735 -73.36000 23925 ft 383 kts 275°
2026-04-29 05:24 10.84117 -73.38680 23373 ft 381 kts 275°
2026-04-29 05:24 10.84493 -73.41317 22831 ft 379 kts 275°
2026-04-29 05:24 10.84867 -73.43940 22292 ft 377 kts 275°
2026-04-29 05:24 10.85242 -73.46579 21753 ft 375 kts 275°
2026-04-29 05:25 10.85614 -73.49189 21215 ft 374 kts 275°
2026-04-29 05:25 10.85985 -73.51792 20678 ft 372 kts 275°
2026-04-29 05:25 10.86356 -73.54402 20143 ft 371 kts 275°
2026-04-29 05:25 10.86725 -73.56991 19608 ft 369 kts 275°
2026-04-29 05:26 10.87092 -73.59564 19084 ft 368 kts 275°
2026-04-29 05:26 10.87440 -73.62017 18577 ft 367 kts 275°
2026-04-29 05:26 10.87804 -73.64560 18056 ft 365 kts 275°
2026-04-29 05:26 10.88161 -73.67092 17534 ft 363 kts 275°
2026-04-29 05:27 10.88524 -73.69652 17012 ft 361 kts 276°
2026-04-29 05:27 10.89233 -73.74660 15987 ft 355 kts 275°
2026-04-29 05:27 10.89580 -73.77112 15576 ft 350 kts 275°
2026-04-29 05:28 10.89918 -73.79508 15065 ft 348 kts 275°
2026-04-29 05:28 10.90263 -73.81929 14568 ft 346 kts 275°
2026-04-29 05:28 10.90600 -73.84327 14073 ft 344 kts 275°
2026-04-29 05:28 10.90934 -73.86688 13592 ft 341 kts 275°
2026-04-29 05:29 10.91311 -73.89112 13382 ft 348 kts 277°
2026-04-29 05:29 10.91757 -73.91568 13861 ft 359 kts 277°
2026-04-29 05:29 10.92212 -73.94126 13596 ft 381 kts 276°
2026-04-29 05:29 10.92572 -73.96876 12830 ft 410 kts 274°
2026-04-29 05:30 10.92930 -73.99722 12003 ft 386 kts 275°
2026-04-29 05:30 10.93280 -74.02423 11306 ft 384 kts 275°
2026-04-29 05:30 10.93625 -74.04950 10986 ft 346 kts 275°
2026-04-29 05:30 10.93940 -74.07232 10806 ft 309 kts 274°
2026-04-29 05:31 10.94223 -74.09312 10656 ft 278 kts 274°
2026-04-29 05:31 10.94479 -74.11174 10369 ft 256 kts 273°
2026-04-29 05:31 10.94722 -74.12943 9705 ft 256 kts 274°
2026-04-29 05:31 10.94976 -74.14737 8877 ft 258 kts 275°
2026-04-29 05:32 10.95221 -74.16544 8016 ft 258 kts 275°
2026-04-29 05:32 10.95453 -74.18353 7149 ft 258 kts 275°
2026-04-29 05:32 10.95674 -74.20162 6284 ft 261 kts 275°
2026-04-29 05:32 10.95891 -74.21991 5659 ft 254 kts 275°
2026-04-29 05:33 10.96067 -74.23740 5073 ft 245 kts 269°
2026-04-29 05:33 10.95664 -74.25400 4937 ft 246 kts 243°
2026-04-29 05:33 10.94898 -74.26955 4995 ft 248 kts 240°
2026-04-29 05:33 10.94126 -74.28485 5005 ft 245 kts 240°
2026-04-29 05:34 10.93350 -74.30013 5004 ft 247 kts 240°
2026-04-29 05:34 10.92552 -74.31591 5005 ft 249 kts 241°
2026-04-29 05:34 10.91773 -74.33144 5002 ft 249 kts 241°
2026-04-29 05:34 10.90994 -74.34713 5005 ft 246 kts 241°
2026-04-29 05:35 10.90221 -74.36265 4998 ft 248 kts 242°
2026-04-29 05:35 10.89452 -74.37817 5002 ft 247 kts 242°
2026-04-29 05:35 10.88683 -74.39372 5000 ft 246 kts 242°
2026-04-29 05:35 10.87925 -74.40912 4998 ft 247 kts 242°
2026-04-29 05:36 10.87155 -74.42478 4999 ft 246 kts 242°
2026-04-29 05:36 10.86399 -74.44019 5002 ft 247 kts 241°
2026-04-29 05:36 10.85628 -74.45591 4999 ft 247 kts 242°
2026-04-29 05:36 10.84864 -74.47154 4994 ft 250 kts 241°
2026-04-29 05:37 10.84088 -74.48740 5000 ft 251 kts 241°
2026-04-29 05:37 10.83316 -74.50321 4998 ft 252 kts 241°
2026-04-29 05:37 10.82541 -74.51915 4994 ft 246 kts 241°
2026-04-29 05:37 10.81799 -74.53436 4934 ft 236 kts 241°
2026-04-29 05:38 10.81082 -74.54912 4855 ft 231 kts 242°
2026-04-29 05:38 10.80367 -74.56376 4777 ft 228 kts 242°
2026-04-29 05:38 10.79673 -74.57806 4701 ft 225 kts 242°
2026-04-29 05:38 10.78983 -74.59221 4622 ft 224 kts 242°
2026-04-29 05:39 10.78292 -74.60644 4549 ft 224 kts 242°
2026-04-29 05:39 10.77609 -74.62043 4470 ft 223 kts 242°
2026-04-29 05:39 10.76923 -74.63459 4398 ft 225 kts 242°
2026-04-29 05:39 10.76236 -74.64872 4324 ft 224 kts 241°
2026-04-29 05:40 10.75546 -74.66289 4247 ft 223 kts 242°
2026-04-29 05:40 10.74852 -74.67714 4174 ft 225 kts 241°
2026-04-29 05:40 10.74168 -74.69123 4097 ft 223 kts 241°
2026-04-29 05:40 10.73474 -74.70548 4029 ft 223 kts 242°
2026-04-29 05:41 10.72792 -74.71947 3999 ft 223 kts 242°
2026-04-29 05:41 10.72115 -74.73344 3997 ft 222 kts 242°
2026-04-29 05:41 10.71422 -74.74771 4001 ft 223 kts 242°
2026-04-29 05:41 10.70740 -74.76169 4000 ft 223 kts 241°
2026-04-29 05:42 10.70068 -74.77554 3992 ft 219 kts 242°
2026-04-29 05:42 10.69399 -74.78926 4007 ft 217 kts 242°
2026-04-29 05:42 10.68739 -74.80290 4004 ft 217 kts 242°
2026-04-29 05:42 10.68106 -74.81662 3997 ft 218 kts 247°
2026-04-29 05:43 10.67978 -74.83201 3962 ft 221 kts 277°
2026-04-29 05:43 10.68625 -74.84600 3845 ft 219 kts 306°
2026-04-29 05:43 10.69591 -74.85726 3715 ft 207 kts 309°
2026-04-29 05:43 10.70530 -74.86794 3547 ft 197 kts 309°
2026-04-29 05:44 10.71424 -74.87805 3364 ft 189 kts 309°
2026-04-29 05:44 10.72275 -74.88770 3185 ft 181 kts 309°
2026-04-29 05:44 10.73105 -74.89720 3017 ft 175 kts 308°
2026-04-29 05:44 10.73914 -74.90606 2846 ft 171 kts 316°
2026-04-29 05:45 10.75043 -74.90899 2629 ft 172 kts 11°
2026-04-29 05:45 10.75996 -74.90267 2543 ft 167 kts 46°
2026-04-29 05:45 10.76757 -74.89395 2413 ft 165 kts 52°
2026-04-29 05:45 10.77476 -74.88494 2265 ft 162 kts 53°
2026-04-29 05:46 10.78170 -74.87608 2111 ft 158 kts 53°
2026-04-29 05:46 10.78849 -74.86772 1988 ft 153 kts 51°
2026-04-29 05:46 10.79583 -74.85982 2014 ft 149 kts 47°
2026-04-29 05:46 10.80327 -74.85269 2019 ft 151 kts 44°
2026-04-29 05:47 10.81083 -74.84592 1876 ft 149 kts 42°
2026-04-29 05:47 10.81875 -74.83918 1661 ft 148 kts 41°
2026-04-29 05:47 10.82666 -74.83257 1449 ft 148 kts 41°
2026-04-29 05:47 10.83452 -74.82601 1256 ft 145 kts 42°
2026-04-29 05:48 10.84236 -74.81942 1069 ft 145 kts 41°
2026-04-29 05:48 10.85027 -74.81303 863 ft 143 kts 40°
2026-04-29 05:48 10.85818 -74.80673 651 ft 142 kts 40°
2026-04-29 05:48 10.86580 -74.80047 460 ft 142 kts 43°
2026-04-29 05:49 10.87343 -74.79399 281 ft 143 kts 43°
2026-04-29 05:49 10.88100 -74.78771 111 ft 137 kts 44°
2026-04-29 05:49 10.88711 -74.78261 105 ft 86 kts 41°
2026-04-29 05:49 10.89039 -74.77987 105 ft 43 kts 39°
2026-04-29 05:50 10.89235 -74.77829 105 ft 31 kts 41°
2026-04-29 05:50 10.89360 -74.77711 105 ft 24 kts 69°
2026-04-29 05:50 10.89342 -74.77569 105 ft 16 kts 124°
2026-04-29 05:50 10.89266 -74.77510 105 ft 14 kts 175°
2026-04-29 05:51 10.89180 -74.77521 105 ft 13 kts 217°
2026-04-29 05:51 10.89102 -74.77583 105 ft 15 kts 219°
2026-04-29 05:51 10.89023 -74.77649 105 ft 16 kts 219°
2026-04-29 05:51 10.88949 -74.77696 105 ft 8 kts 162°
2026-04-29 05:52 10.88913 -74.77654 105 ft 8 kts 128°
2026-04-29 05:52 10.88902 -74.77640 105 ft 0 kts 129°